Weather in Gravataí

Brazil     29°56′48″S   50°57′49″W
temp.,
°C
wind,
m/s
gust,
m/s
humid.,
%
clouds,
%
prec.,
mm/h
press.,
hPa
HPBL,
m
15 may, sat
sat1500:00+12e12840 0.0 102173
03:00+11ese11861 0.0 102023
06:00+10nne01881 0.0 102011
09:00+14nnw01710 0.0 1021194
12:00+20ssw00490 0.0 1020609
15:00+22sse11440 0.0 1019957
18:00+17sse37730 0.0 1019288
21:00+14ese278686 0.0 1020217
16 may, sun
sun1600:00+13ese139172 0.0 1020101
03:00+13ese01935 0.0 101915
06:00+12nnw119493 0.0 101913
09:00+15wnw118051 0.0 1020199
12:00+21sw1155100 0.0 1019700
15:00+22s1153100 0.0 10171027
18:00+18sse247879 0.0 1018151
21:00+15ese12872 0.0 101995
17 may, mon
mon1700:00+15ssw00904 0.0 101814
03:00+14wnw11940 0.0 101720
06:00+13nw239710 0.0 101899
09:00+15wnw248227 0.0 1019349
12:00+20w34603 0.0 10181064
15:00+22w35460 0.0 10161667
18:00+17sse257035 0.0 1017184
21:00+15s157137 0.0 1019227
18 may, tue
tue1800:00+14wnw11750 0.0 101922
03:00+12wnw12800 0.0 101945
06:00+11wnw23790 0.0 102089
09:00+13wnw23664 0.0 1021339
12:00+18wsw23520 0.0 10211148
15:00+19wsw23451 0.0 10181304
18:00+15sse24632 0.0 1018124
21:00+13ese12733 0.0 101972
19 may, wed
wed1900:00+12ne11780 0.0 101924
03:00+11nw11820 0.0 101813
06:00+10nw11850 0.0 101827
09:00+13w12700 0.0 1019290
12:00+18wsw23465 0.0 1019960
15:00+19sw234189 0.0 10171098
18:00+14sse25650 0.0 1018152
21:00+13ese12765 0.0 101995